[[{"header":{"parameterUnit":"m.s-1","parameterCategory":1,"la1":30.2991,"la2":30.254,"lo1":-89.0895,"lo2":-89.0444,"dy":0.0017,"dx":0.0017,"nx":28,"ny":28,"refTime":"2025-02-03T09:00:00:Z","depth":0,"parameterNumber":2,"parameterNumberName":"U-component_of_WINDS"},"data":[0,0,0,0,0,0,0,0,0,0,0,0,0,0,0,0,0,0,0,0,0,0,0,0,0,0,0,0,0,0,0,0,0,0,0,0,0,0,0,0,0,0,0,0,0,0,0,0,0,0,0,0,0,0,0,0,0,0,-1.537,-1.5371,0,-1.5428,-1.5429,-1.5429,-1.5421,-1.542,-1.5419,-1.5418,-1.5476,-1.5478,-1.5481,0,0,0,0,0,0,0,0,0,0,0,0,0,-1.5252,-1.5255,-1.537,-1.5371,-1.5372,-1.5428,-1.5429,-1.5429,-1.5421,-1.5419,-1.5418,-1.5417,-1.5475,-1.5478,-1.5481,0,0,0,0,0,0,0,0,0,0,0,0,0,-1.5306,-1.5255,-1.537,-1.5374,-1.5375,-1.5428,-1.5429,-1.543,-1.5421,-1.5419,-1.5418,-1.5417,-1.5474,-1.5478,-1.5481,-1.5534,0,0,-1.5493,-1.5494,0,0,0,0,0,0,0,0,-1.5303,-1.531,-1.5373,-1.5374,-1.5375,-1.5416,-1.5408,-1.5464,-1.5421,-1.5404,-1.5418,-1.5416,-1.5457,-1.5462,-1.5476,-1.5536,-1.5539,-1.5493,-1.5495,-1.5497,-1.5498,0,0,0,0,0,0,0,-1.5299,-1.5308,-1.5393,-1.5374,-1.5375,-1.5373,-1.5379,-1.5419,-1.5438,-1.5405,-1.5404,-1.5411,-1.5457,-1.5473,-1.5477,-1.554,-1.5493,-1.5496,-1.5499,-1.55,-1.5646,-1.5647,0,0,0,0,0,0,-1.5295,-1.5305,-1.5391,-1.5395,-1.5335,-1.5376,-1.5383,-1.5404,-1.5437,-1.5441,-1.5413,-1.5411,-1.5467,-1.5473,-1.5479,-1.5542,-1.5497,-1.55,-1.5502,-1.5644,-1.5646,-1.5648,0,0,0,0,0,0,-1.5292,-1.5302,-1.5389,-1.535,-1.5361,-1.538,-1.5404,-1.5406,-1.5421,-1.5443,-1.5446,-1.5425,-1.5466,-1.5474,-1.552,-1.5544,-1.5502,-1.5505,-1.5642,-1.5645,-1.5647,-1.5669,0,0,0,0,0,0,-1.5289,-1.5302,-1.5322,-1.535,-1.5363,-1.5429,-1.5405,-1.5408,-1.5428,-1.5426,-1.5455,-1.5459,-1.5466,-1.5515,-1.5524,-1.5549,-1.5508,-1.564,-1.5643,-1.5646,-1.5666,-1.5672,-1.5677,0,0,0,0,0,-1.5285,-1.5325,-1.5323,-1.5333,-1.5388,-1.543,-1.5437,-1.5444,-1.543,-1.545,-1.5464,-1.5458,-1.554,-1.552,-1.553,-1.5556,-1.5639,-1.5642,-1.5646,-1.5664,-1.5671,-1.5677,0,0,0,0,0,0,-1.5298,-1.5329,-1.5326,-1.5378,-1.5402,-1.5429,-1.5454,-1.5452,-1.548,-1.5477,-1.5485,-1.5491,-1.5538,-1.5552,-1.5528,-1.5608,-1.5587,-1.5593,-1.5597,-1.5604,-1.5609,-1.5605,-1.5511,0,0,0,0,0,-1.5308,-1.5339,-1.5364,-1.5407,-1.5419,-1.5435,-1.5454,-1.5457,-1.5482,-1.5492,-1.5509,-1.5534,-1.5565,-1.5586,-1.5616,-1.5668,-1.5675,-1.5692,-1.5697,-1.5701,-1.5706,-1.5735,-1.5742,-1.566,-1.566,-1.566,0,0,-1.5326,-1.5347,-1.5367,-1.5411,-1.5429,-1.5462,-1.5443,-1.5479,-1.5503,-1.5497,-1.5542,-1.5556,-1.5583,-1.5633,-1.5655,-1.5646,-1.573,-1.5706,-1.5709,-1.5712,-1.5739,-1.5747,-1.5754,-1.5663,-1.5662,-1.5662,0,0,-1.5377,-1.5397,-1.5434,-1.5454,-1.5483,-1.5493,-1.5502,-1.553,-1.5539,-1.5584,-1.558,-1.5609,-1.5663,-1.5683,-1.57,-1.576,-1.5755,-1.5769,-1.5797,-1.5825,-1.5831,-1.5837,-1.5858,-1.5865,-1.5774,-1.5774,-1.5774,0,-1.5397,-1.5446,-1.5454,-1.549,-1.5509,-1.5506,-1.5544,-1.5563,-1.56,-1.5613,-1.5602,-1.567,-1.5688,-1.5742,-1.5757,-1.5771,-1.5781,-1.5765,-1.583,-1.5836,-1.5841,-1.5861,-1.5869,-1.5776,-1.5776,-1.5775,-1.5775,0,-1.5469,-1.5503,-1.553,-1.5566,-1.5589,-1.5626,-1.5639,-1.5661,-1.5663,-1.5674,-1.572,-1.5742,-1.5777,-1.579,-1.5792,-1.5845,-1.5837,-1.5828,-1.5807,-1.585,-1.5869,-1.5877,-1.5778,-1.5777,-1.5777,-1.5777,0,0,-1.5529,-1.557,-1.558,-1.5596,-1.5628,-1.5655,-1.5692,-1.5726,-1.5744,-1.577,-1.5801,-1.5847,-1.5839,-1.5858,-1.5863,-1.5887,-1.5933,-1.5875,-1.5876,-1.5884,-1.5992,-1.5998,-1.6007,-1.593,-1.5932,-1.5933,-1.5989,0,-1.5583,-1.5648,-1.5656,-1.5714,-1.5745,-1.5743,-1.5775,-1.5799,-1.5811,-1.5839,-1.5852,-1.5885,-1.5871,-1.5883,-1.5907,-1.5922,-1.5954,-1.5918,-1.5958,-1.596,-1.5951,-1.6016,-1.6023,-1.6075,-1.5996,-1.5998,-1.5999,0,-1.5653,-1.5682,-1.5743,-1.5771,-1.5784,-1.5813,-1.5845,-1.5873,-1.5899,-1.5906,-1.5928,-1.593,-1.5968,-1.5946,-1.5998,-1.5974,-1.5991,-1.6001,-1.6003,-1.6006,-1.5981,-1.6021,-1.6092,-1.6099,-1.601,-1.6009,-1.6009,0,-1.569,-1.5744,-1.5787,-1.5802,-1.5836,-1.5856,-1.5871,-1.5896,-1.5916,-1.5944,-1.5957,-1.599,-1.6007,-1.6032,-1.6042,-1.6025,-1.6094,-1.6073,-1.61,-1.61,-1.6114,-1.6113,-1.6188,-1.6126,-1.6126,-1.6126,-1.6126,0,-1.5749,-1.5786,-1.5805,-1.5831,-1.5873,-1.5882,-1.5923,-1.5937,-1.596,-1.5989,-1.599,-1.6017,-1.6029,-1.6059,-1.6067,-1.6109,-1.6117,-1.6123,-1.6125,-1.6123,-1.6122,-1.6133,-1.613,-1.6128,-1.6128,-1.6127,-1.6127,0,-1.5797,-1.5811,-1.5858,-1.5886,-1.5894,-1.5924,-1.5948,-1.5974,-1.5986,-1.6023,-1.6032,-1.6051,-1.6086,-1.6099,-1.6141,-1.6146,-1.6195,-1.6194,-1.6186,-1.6186,-1.6212,-1.6209,-1.6297,-1.6308,-1.624,-1.6241,-1.6241,0,-1.5832,-1.5861,-1.5893,-1.5913,-1.5929,-1.596,-1.5981,-1.5992,-1.6013,-1.6046,-1.6068,-1.6102,-1.613,-1.6186,-1.6203,-1.6235,-1.6235,-1.6263,-1.624,-1.6237,-1.6234,-1.6232,-1.6235,-1.6267,-1.6268,-1.6268,-1.6269,0,-1.5894,-1.59,-1.593,-1.5962,-1.5987,-1.6013,-1.6038,-1.6054,-1.6069,-1.6093,-1.6129,-1.6151,-1.6194,-1.6228,-1.6262,-1.6277,-1.6275,-1.6277,-1.6284,-1.6282,-1.6276,-1.6279,-1.6197,-1.6274,-1.6274,-1.6273,-1.6273,-1.6273,-1.5936,-1.5962,-1.5988,-1.6022,-1.6042,-1.6066,-1.6091,-1.6107,-1.6137,-1.6173,-1.6178,-1.6216,-1.6242,-1.6287,-1.6304,-1.6334,-1.6326,-1.6337,-1.634,-1.6343,-1.6344,-1.6272,-1.634,-1.634,-1.634,-1.6339,-1.6339,0,-1.5997,-1.6015,-1.6045,-1.6081,-1.6107,-1.6104,-1.6132,-1.6154,-1.6188,-1.6213,-1.624,-1.6281,-1.6315,-1.6335,-1.6369,-1.6389,-1.6389,-1.6397,-1.6395,-1.6399,-1.6349,-1.6339,-1.6397,-1.6397,-1.6397,-1.6397,-1.6397,-1.6397,-1.6032,-1.6075,-1.6084,-1.6136,-1.6153,-1.6191,-1.6207,-1.6229,-1.6249,-1.6295,-1.6323,-1.6336,-1.6359,-1.6394,-1.6425,-1.643,-1.6442,-1.6451,-1.6455,-1.6408,-1.6402,-1.6397,-1.6387,-1.6454,-1.6454,-1.6502,-1.6502,-1.6503]},{"header":{"parameterUnit":"m.s-1","parameterCategory":1,"la1":30.2991,"la2":30.254,"lo1":-89.0895,"lo2":-89.0444,"dy":0.0017,"dx":0.0017,"nx":28,"ny":28,"refTime":"2025-02-03T09:00:00:Z","depth":0,"parameterNumber":3,"parameterNumberName":"V-component_of_WINDS"},"data":[0,0,0,0,0,0,0,0,0,0,0,0,0,0,0,0,0,0,0,0,0,0,0,0,0,0,0,0,0,0,0,0,0,0,0,0,0,0,0,0,0,0,0,0,0,0,0,0,0,0,0,0,0,0,0,0,0,0,-0.9115,-0.9115,0,-0.913,-0.913,-0.913,-0.9146,-0.9146,-0.9146,-0.9146,-0.916,-0.916,-0.9161,0,0,0,0,0,0,0,0,0,0,0,0,0,-0.9097,-0.9098,-0.9115,-0.9115,-0.9115,-0.913,-0.913,-0.9131,-0.9146,-0.9146,-0.9146,-0.9146,-0.916,-0.916,-0.9161,0,0,0,0,0,0,0,0,0,0,0,0,0,-0.9108,-0.9098,-0.9115,-0.9125,-0.9126,-0.913,-0.913,-0.9131,-0.9146,-0.9146,-0.9146,-0.9147,-0.916,-0.916,-0.9161,-0.9156,0,0,-0.9161,-0.9162,0,0,0,0,0,0,0,0,-0.9107,-0.9109,-0.9123,-0.9124,-0.9125,-0.9136,-0.9129,-0.9139,-0.9146,-0.9138,-0.9146,-0.9147,-0.9152,-0.9153,-0.9155,-0.9157,-0.9157,-0.9161,-0.9162,-0.9162,-0.9162,0,0,0,0,0,0,0,-0.9107,-0.9108,-0.9121,-0.9123,-0.9125,-0.9128,-0.913,-0.9131,-0.9143,-0.9139,-0.914,-0.9142,-0.9153,-0.9155,-0.9155,-0.9157,-0.9161,-0.9162,-0.9162,-0.9162,-0.9156,-0.9155,0,0,0,0,0,0,-0.9105,-0.9107,-0.912,-0.9121,-0.9117,-0.9128,-0.913,-0.9132,-0.9143,-0.9145,-0.9141,-0.9142,-0.9154,-0.9155,-0.9156,-0.9151,-0.9162,-0.9162,-0.9162,-0.9156,-0.9155,-0.9155,0,0,0,0,0,0,-0.9104,-0.9106,-0.912,-0.9115,-0.9117,-0.9128,-0.9131,-0.9133,-0.9135,-0.9145,-0.9147,-0.9141,-0.9154,-0.9156,-0.9156,-0.9152,-0.9162,-0.9162,-0.9156,-0.9156,-0.9155,-0.9141,0,0,0,0,0,0,-0.9104,-0.9105,-0.9104,-0.9115,-0.9117,-0.912,-0.913,-0.9133,-0.9135,-0.9137,-0.9146,-0.9147,-0.9155,-0.9155,-0.9156,-0.9152,-0.9163,-0.9157,-0.9156,-0.9155,-0.9142,-0.914,-0.9138,0,0,0,0,0,-0.9103,-0.9099,-0.9104,-0.9105,-0.9116,-0.912,-0.9121,-0.913,-0.9135,-0.9133,-0.914,-0.9147,-0.9152,-0.9155,-0.9156,-0.9152,-0.9157,-0.9156,-0.9155,-0.9142,-0.914,-0.9138,0,0,0,0,0,0,-0.9087,-0.9101,-0.9106,-0.9106,-0.9111,-0.9122,-0.9121,-0.9127,-0.9131,-0.9132,-0.9143,-0.9145,-0.9144,-0.9148,-0.9151,-0.9148,-0.9155,-0.9155,-0.9145,-0.9143,-0.9141,-0.914,-0.9163,0,0,0,0,0,-0.9084,-0.9087,-0.9098,-0.9096,-0.9099,-0.9109,-0.9111,-0.9118,-0.9124,-0.9126,-0.9133,-0.9138,-0.9141,-0.9142,-0.9145,-0.9143,-0.9144,-0.914,-0.9139,-0.9137,-0.9136,-0.9134,-0.9133,-0.9153,-0.9153,-0.9153,0,0,-0.9077,-0.9084,-0.9085,-0.9093,-0.9099,-0.91,-0.9111,-0.9113,-0.9114,-0.9126,-0.9127,-0.9132,-0.9139,-0.9137,-0.9137,-0.9141,-0.9131,-0.9136,-0.9135,-0.9135,-0.9133,-0.9132,-0.913,-0.9152,-0.9152,-0.9152,0,0,-0.9064,-0.9071,-0.907,-0.9075,-0.9083,-0.909,-0.909,-0.9099,-0.9103,-0.9104,-0.9114,-0.9115,-0.912,-0.9124,-0.9126,-0.9116,-0.9122,-0.9117,-0.9107,-0.9106,-0.9104,-0.9103,-0.9098,-0.9096,-0.9116,-0.9116,-0.9116,0,-0.9054,-0.9058,-0.9068,-0.907,-0.9073,-0.9085,-0.9083,-0.9088,-0.9096,-0.9098,-0.9102,-0.9108,-0.9113,-0.9113,-0.911,-0.9112,-0.9112,-0.9115,-0.9103,-0.9102,-0.9101,-0.9097,-0.9095,-0.9115,-0.9115,-0.9115,-0.9115,0,-0.9044,-0.9047,-0.9045,-0.9054,-0.9057,-0.9056,-0.9067,-0.9068,-0.9075,-0.9081,-0.9081,-0.9088,-0.9093,-0.9093,-0.9099,-0.9093,-0.9095,-0.9102,-0.9109,-0.9098,-0.9094,-0.9093,-0.9114,-0.9114,-0.9114,-0.9115,0,0,-0.9022,-0.9037,-0.9036,-0.9039,-0.9049,-0.9051,-0.9051,-0.9056,-0.9057,-0.9063,-0.9063,-0.9066,-0.9072,-0.9075,-0.9082,-0.908,-0.9071,-0.9087,-0.9087,-0.9083,-0.9064,-0.9059,-0.9057,-0.9075,-0.9075,-0.9075,-0.9063,0,-0.9011,-0.9013,-0.9022,-0.9021,-0.9023,-0.9035,-0.9035,-0.904,-0.9046,-0.9048,-0.9055,-0.9057,-0.9065,-0.9067,-0.9066,-0.9072,-0.9067,-0.9073,-0.9075,-0.9075,-0.9072,-0.9055,-0.9049,-0.9038,-0.9062,-0.9061,-0.9061,0,-0.8998,-0.9003,-0.9002,-0.9011,-0.9013,-0.9013,-0.9018,-0.902,-0.9027,-0.9031,-0.9035,-0.9042,-0.9043,-0.905,-0.9051,-0.9055,-0.9056,-0.9059,-0.9059,-0.9059,-0.9067,-0.9053,-0.9034,-0.9032,-0.9059,-0.9059,-0.906,0,-0.898,-0.8987,-0.8987,-0.899,-0.9002,-0.9001,-0.9006,-0.9013,-0.9015,-0.902,-0.9021,-0.9026,-0.9028,-0.903,-0.9039,-0.9044,-0.9038,-0.9046,-0.9041,-0.904,-0.9038,-0.9038,-0.9018,-0.904,-0.904,-0.904,-0.9041,0,-0.8966,-0.8965,-0.898,-0.898,-0.8978,-0.899,-0.8988,-0.8994,-0.9,-0.9001,-0.9011,-0.9011,-0.9023,-0.9024,-0.9031,-0.903,-0.9031,-0.9034,-0.9035,-0.9032,-0.9032,-0.9033,-0.9033,-0.904,-0.904,-0.904,-0.904,0,-0.8946,-0.8956,-0.8957,-0.8968,-0.8971,-0.8969,-0.8979,-0.8979,-0.8986,-0.8987,-0.8987,-0.8998,-0.9,-0.9009,-0.9013,-0.9018,-0.9014,-0.9018,-0.9012,-0.9013,-0.9007,-0.9007,-0.8986,-0.8984,-0.9008,-0.9008,-0.9007,0,-0.8936,-0.8935,-0.8947,-0.8948,-0.8953,-0.8955,-0.8958,-0.8969,-0.8971,-0.8978,-0.8977,-0.8981,-0.8984,-0.8987,-0.8995,-0.8998,-0.9001,-0.8994,-0.9002,-0.8999,-0.9,-0.9,-0.9,-0.8992,-0.8992,-0.8991,-0.8991,0,-0.8917,-0.8922,-0.8925,-0.8931,-0.8934,-0.8938,-0.8943,-0.8944,-0.8956,-0.8958,-0.8961,-0.8963,-0.8968,-0.8971,-0.8976,-0.898,-0.8987,-0.8989,-0.8987,-0.8984,-0.898,-0.8981,-0.9007,-0.8989,-0.8989,-0.8989,-0.8989,-0.8989,-0.8901,-0.8901,-0.8909,-0.8912,-0.8917,-0.8922,-0.8923,-0.893,-0.8933,-0.8938,-0.8944,-0.8946,-0.8952,-0.896,-0.8963,-0.8964,-0.8968,-0.8967,-0.8966,-0.8965,-0.8964,-0.8981,-0.8965,-0.8965,-0.8966,-0.8966,-0.8966,0,-0.8881,-0.8887,-0.8891,-0.8898,-0.89,-0.8908,-0.8914,-0.8916,-0.8917,-0.8923,-0.8926,-0.8929,-0.8932,-0.894,-0.8944,-0.8943,-0.8947,-0.8944,-0.8943,-0.8944,-0.896,-0.8961,-0.8941,-0.8941,-0.8941,-0.8941,-0.8941,-0.8941,-0.8871,-0.8871,-0.8877,-0.888,-0.8886,-0.8888,-0.8891,-0.8895,-0.89,-0.8903,-0.8906,-0.8911,-0.8918,-0.8922,-0.8925,-0.8927,-0.8927,-0.8923,-0.8926,-0.8941,-0.8943,-0.8945,-0.8946,-0.8923,-0.8923,-0.891,-0.891,-0.891]}]]